Toluca Jose Maria, Mexico

6:48 PM CDT on July 22, 2017 (GMT -0500)
Lic Adolfo Lopez Mateos International

Weather History for MMTO - January, 2013

Change the Weather History Date:

Saturday, January 12, 2013

  Actual Average Record
Temperature  
Mean Temperature 52 °F -  
Max Temperature 69 °F 64 °F 71 °F (2015)
Min Temperature 35 °F 30 °F 17 °F (1997)
Degree Days  
Heating Degree Days 13    
Growing Degree Days 2 (Base 50)    
Moisture  
Dew Point 40 °F    
Average Humidity 69    
Maximum Humidity 93    
Minimum Humidity 33    
Precipitation  
Precipitation 0.00 in - - ()
Sea Level Pressure  
Sea Level Pressure 30.19 in    
Wind  
Wind Speed 2 mph ()    
Max Wind Speed 17 mph    
Max Gust Speed -    
Visibility 5.8 miles    
Events      
Averages and records for this station are not official NWS values.
T = Trace of Precipitation, MM = Missing Value Source: Averaged Metar Reports

Daily Weather History Graph

Daily Weather History Graph

Search for Another Location

Airport or City:

Trip Planner

Search our weather history database for the weather conditions in past years. The results will help you decide how hot, cold, wet, or windy it might be!

Date:

Astronomy

Jan. 12, 2013 Rise Set
Actual Time 7:14 AM CST 6:18 PM CST
Civil Twilight 6:51 AM CST 6:42 PM CST
Nautical Twilight 6:24 AM CST 7:09 PM CST
Astronomical Twilight 5:57 AM CST 7:36 PM CST
Moon 7:48 AM CST (1/12) 7:33 PM CST (1/12)
Length of Visible Light 11h 51m
Length of Day
11h 04m
New Moon, 1% of the Moon is Illuminated
Jan 12
New Moon
Jan 18
First Quarter
Jan 26
Full
Feb 3
Last Quarter
Feb 10
New

Hourly Weather History & Observations

Time (CST) Temp. Windchill Dew Point Humidity Pressure Visibility Wind Dir Wind Speed Gust Speed Precip Events Conditions
12:44 AM 42.8 °F - 39.2 °F 87% 30.35 in 7.0 mi Calm Calm - N/A   Clear
1:43 AM 42.8 °F - 37.4 °F 81% 30.36 in 7.0 mi Calm Calm - N/A   Clear
2:45 AM 39.2 °F 35.9 °F 35.6 °F 87% 29.87 in 7.0 mi NE 4.6 mph - N/A   Clear
3:43 AM 39.2 °F 35.9 °F 37.4 °F 93% 30.35 in 7.0 mi NNE 4.6 mph - N/A   Clear
4:45 AM 39.2 °F - 35.6 °F 87% 30.34 in 7.0 mi Calm Calm - N/A   Clear
5:43 AM 35.6 °F - 33.8 °F 93% 29.94 in 6.0 mi Calm Calm - N/A   Clear
6:45 AM 35.6 °F - 33.8 °F 93% 30.35 in 6.0 mi Calm Calm - N/A   Scattered Clouds
7:45 AM 35.6 °F - 33.8 °F 93% 30.38 in 2.0 mi Calm Calm - N/A   Scattered Clouds
8:45 AM 41.0 °F - 39.2 °F 93% 30.01 in 2.0 mi Calm Calm - N/A   Haze
9:45 AM 53.6 °F - 41.0 °F 62% 30.41 in 2.0 mi Calm Calm - N/A   Haze
10:15 AM 57.2 °F - 42.8 °F 59% 30.40 in 3.0 mi Calm Calm - N/A   Haze
10:45 AM 59.0 °F - 42.8 °F 55% 30.40 in 5.0 mi Calm Calm - N/A   Scattered Clouds
11:45 AM 60.8 °F - 41.0 °F 48% 29.91 in 5.0 mi Calm Calm - N/A   Mostly Cloudy
12:45 PM 66.2 °F - 39.2 °F 37% 30.33 in 7.0 mi South 10.4 mph - N/A   Mostly Cloudy
1:45 PM 68.0 °F - 37.4 °F 33% 30.29 in 6.0 mi SSE 10.4 mph - N/A   Mostly Cloudy
2:45 PM 68.0 °F - 39.2 °F 35% 29.77 in 5.0 mi SSE 4.6 mph - N/A   Mostly Cloudy
3:45 PM 69.8 °F - 39.2 °F 33% 30.25 in 5.0 mi SSE 9.2 mph - N/A   Mostly Cloudy
4:45 PM 66.2 °F - 41.0 °F 40% 30.27 in 6.0 mi SSE 17.3 mph - N/A   Mostly Cloudy
5:45 PM 62.6 °F - 48.2 °F 59% 29.85 in 7.0 mi South 10.4 mph - N/A   Mostly Cloudy
6:45 PM 59.0 °F - 44.6 °F 59% 30.29 in 7.0 mi East 3.5 mph - N/A   Mostly Cloudy
7:45 PM 55.4 °F - 44.6 °F 67% 30.29 in 7.0 mi East 3.5 mph - N/A   Mostly Cloudy
8:45 PM 51.8 °F - 48.2 °F 88% 29.92 in 7.0 mi Calm Calm - N/A   Mostly Cloudy
9:45 PM 48.2 °F - 41.0 °F 76% 30.28 in 7.0 mi Calm Calm - N/A   Scattered Clouds
10:45 PM 46.4 °F - 39.2 °F 76% 30.28 in 7.0 mi Calm Calm - N/A   Scattered Clouds
11:45 PM 44.6 °F 40.7 °F 39.2 °F 81% 29.85 in 7.0 mi NW 6.9 mph - N/A   Scattered Clouds